Regional Weather Roundup
Issued by NWS

Home | Current Version | Previous Version | Graphics & Text | Print | Product List | Glossary Off
Versions: 1 2 3 4 5 6 7 8 9 10 11 12 13 14 15 16 17 18 19 20 21 22 23 24 25 26 27 28 29 30 31 32 33 34 35 36 37 38 39 40 41 42 43 44 45 46 47 48 49 50

000
ASUS43 KTOP 081459
RWRKS

WEATHER ROUNDUP FOR KANSAS
NATIONAL WEATHER SERVICE GOODLAND KS
900 AM CST MON FEB 08 2016

NOTE:  "FAIR" INDICATES FEW OR NO CLOUDS BELOW 12,000 FEET WITH NO
SIGNIFICANT WEATHER AND/OR OBSTRUCTIONS TO VISIBILITY.

KSZ001>006-013>018-027>032-041>047-081600-
NORTHWEST KANSAS

CITY           SKY/WX    TMP DP  RH WIND       PRES   REMARKS
GOODLAND       CLOUDY    24  12  60 NW16      30.34R WCI  11
HAYS           SUNNY     34  10  37 NW33G41   30.28R WCI  19
HILL CITY      SUNNY     30  15  53 NW24G32   30.31R WCI  16
RUSSELL        SUNNY     32  16  51 NW33G45   30.26R WCI  17
$$

KSZ061>065-074>080-084>089-081600-
SOUTHWEST KANSAS

CITY           SKY/WX    TMP DP  RH WIND       PRES   REMARKS
DODGE CITY     SUNNY     30  12  47 NW22G30   30.34R WCI  17
ELKHART          N/A     31  12  45 W14         N/A  WCI  21
GARDEN CITY    SUNNY     29  13  51 NW18      30.37R WCI  16
GREAT BEND     SUNNY     34  12  40 NW29G38   30.28R WCI  20
LIBERAL        SUNNY     34  12  40 W15G22    30.40R WCI  24
$$

KSZ066>073-081>083-090>101-081600-
SOUTHEAST KANSAS

CITY           SKY/WX    TMP DP  RH WIND       PRES   REMARKS
CHANUTE        PTSUNNY   37  20  50 NW22G31   30.10R WCI  26
COFFEYVILLE    SUNNY     38  19  46 NW24G38   30.13S WCI  27
HUTCHINSON     SUNNY     35  15  44 NW24G33   30.22R WCI  23
MEDICINE LODGE   N/A     36  15  42 NW20G37   30.28R WCI  25
NEWTON         SUNNY     34  16  47 NW29G39   30.19R WCI  20
PARSONS        MOSUNNY   38  20  48 NW23G33   30.11S WCI  27
WICHITA INTL   MOSUNNY   37  15  40 NW29G38   30.21R WCI  25
WICHITA JABRA  SUNNY     34  17  50 NW22G36   30.20R WCI  22
WINFIELD       SUNNY     37  17  44 NW25G35   30.22R WCI  25
$$

KSZ007>012-019>026-033>040-048>060-102>105-081600-
NORTHEAST KANSAS

CITY           SKY/WX    TMP DP  RH WIND       PRES   REMARKS
CONCORDIA      MOSUNNY   30  17  58 NW24G31   30.20R WCI  16
EMPORIA        CLOUDY    35  18  49 NW22G36   30.11R WCI  23
LAWRENCE       CLOUDY    32  18  56 NW20G32   30.08R WCI  20
MANHATTAN      PTSUNNY   33  17  51 NW14G32   30.16R WCI  23
OLATHE IND     CLOUDY    31  18  58 NW23G38   30.05R WCI  18
OLATHE EXE     CLOUDY    31  17  56 NW20G35   30.03R WCI  19
SALINA         SUNNY     35  17  47 NW23G33   30.21R WCI  23
TOPEKA BILLARD CLOUDY    33  17  51 NW22G29   30.11R WCI  21
TOPEKA FORBES  CLOUDY    34  17  50 NW31G41   30.09R WCI  20
$$



USA.gov is the U.S. government's official web portal to all federal, state and local government web resources and services.